Theta_e
316 313 312 311 311 310 312 318 324 327 328 329 331 332 333 333 334 333 335 334 333 332 331 331 329 331 331 330 330 332 333 335 336 337 337 336 336 337 337 335 334 333 333 333 332 328 329 329 329 328 327 326 325 324 324 323 323 322 321 320 318 317 315 314 314 313 310 308 310 310 310 312 311 310 310 311 311 312 313 313 314 315 317 318 319
310 309 308 309 309 310 310 310 312 318 323 326 327 329 331 332 332 333 334 333 332 332 332 331 332 330 330 330 330 330 331 332 333 335 336 337 337 337 337 336 335 334 332 332 332 331 330 329 330 330 328 325 323 323 323 320 323 322 321 319 318 316 315 316 314 311 308 307 308 310 311 312 311 310 309 309 311 311 312 312 313 313 315 316 317
309 309 309 308 310 310 309 309 310 312 318 322 325 327 329 330 331 332 332 332 332 332 332 332 332 332 331 330 331 331 334 334 334 334 336 336 337 337 337 337 337 335 333 331 331 331 331 331 330 329 326 323 321 321 321 321 322 322 320 318 317 316 315 317 315 312 310 312 310 307 306 307 312 311 311 310 311 310 311 311 312 312 313 315 316
307 308 307 307 309 309 308 308 309 310 312 317 321 324 326 328 330 331 332 332 332 332 331 333 333 333 333 332 333 333 331 333 335 335 335 335 335 336 337 337 337 336 335 333 331 332 331 330 328 327 326 324 322 321 322 321 322 321 320 317 317 315 312 313 314 312 311 311 306 305 308 307 304 309 313 315 312 311 311 310 311 311 313 314 314
308 307 307 307 308 308 309 309 309 309 310 313 318 321 323 326 328 330 330 331 332 331 330 331 331 331 332 333 333 333 333 332 331 331 333 333 333 335 335 336 336 336 336 335 330 330 330 330 328 328 328 327 325 323 322 323 322 322 321 318 316 315 315 313 312 311 310 312 312 309 307 304 304 308 311 312 316 313 311 311 311 311 312 312 312
306 307 309 310 310 311 310 309 307 308 308 310 313 317 319 323 325 327 328 329 330 330 329 329 328 328 328 327 326 325 324 324 324 324 326 326 328 332 334 335 335 335 335 335 335 330 330 330 330 329 328 328 325 324 323 324 322 320 320 319 317 317 316 314 312 311 310 311 312 314 315 312 311 312 309 307 314 314 315 313 311 311 312 311 311
310 309 310 310 310 311 310 311 311 309 310 310 311 313 316 318 322 324 325 326 328 328 328 326 326 326 326 326 325 324 323 325 327 328 328 328 329 329 330 332 332 332 333 334 334 335 333 332 331 330 329 329 328 326 323 321 321 321 321 319 318 316 315 312 313 313 308 310 310 311 311 312 313 310 307 309 306 312 315 315 313 312 312 311 311
309 309 309 310 310 310 309 309 309 309 309 308 309 310 313 317 320 321 323 324 326 327 327 326 325 325 325 325 325 324 324 324 326 326 328 328 327 328 329 329 330 330 331 331 331 331 331 332 333 333 331 330 327 325 324 324 324 324 321 320 318 317 316 313 313 315 309 308 308 308 307 308 310 311 310 307 305 303 306 312 312 312 311 310 310
307 310 309 309 309 308 309 308 309 310 312 312 312 313 314 317 319 320 321 323 324 324 325 325 325 325 325 324 324 324 325 325 325 327 326 327 326 326 326 327 327 329 329 330 329 330 329 330 332 331 331 331 326 326 326 325 323 322 320 318 318 317 316 315 314 314 315 314 308 306 308 308 308 308 308 307 303 302 303 305 307 311 310 310 310
307 307 308 308 308 308 309 309 310 311 312 314 314 316 318 319 319 321 322 323 324 324 324 324 324 324 324 324 323 323 324 324 324 323 324 324 323 323 323 324 325 325 326 327 327 328 328 329 329 329 329 329 327 329 328 326 324 323 322 320 319 317 316 315 314 315 315 315 316 313 308 306 305 305 306 306 305 305 303 305 307 307 306 308 309
307 307 307 308 309 309 310 309 310 312 314 317 317 317 318 319 320 319 318 320 321 322 323 323 324 324 323 324 323 322 323 323 322 322 322 321 320 321 322 322 324 323 324 324 324 325 325 326 325 326 327 327 327 328 327 326 325 324 323 322 320 318 316 316 314 314 315 315 315 314 312 310 308 306 307 305 305 303 303 304 306 306 305 306 309
307 308 308 308 309 309 310 309 310 311 313 315 317 319 318 318 317 315 316 316 318 320 322 322 322 322 323 323 323 323 322 321 321 320 320 320 320 320 321 320 320 321 321 320 321 322 322 323 324 324 324 325 325 326 326 326 327 327 324 322 321 320 319 316 315 314 314 314 314 314 313 313 312 309 311 310 307 306 307 306 307 309 309 309 311
307 307 308 309 309 309 309 309 310 310 310 312 313 316 319 319 318 317 317 317 317 318 319 319 320 320 320 320 321 321 321 321 320 319 319 318 318 318 318 318 318 318 318 318 320 321 321 321 321 320 321 321 322 322 323 323 323 323 323 325 322 320 320 318 316 315 315 314 313 314 314 314 313 314 313 311 311 311 309 306 307 309 305 307 309
306 307 308 308 308 309 309 309 309 309 310 310 311 312 313 313 312 312 312 315 317 318 317 316 317 317 318 317 318 317 317 317 317 316 317 317 317 316 316 316 316 317 317 318 319 319 319 320 320 319 319 320 319 319 320 320 321 320 321 320 321 323 323 321 319 318 317 316 316 315 314 314 314 314 314 313 312 310 307 306 306 307 308 307 309
306 306 306 306 307 307 308 308 308 309 310 310 311 311 312 311 310 310 309 310 312 313 314 314 314 314 315 315 315 316 316 316 316 316 315 315 315 315 315 316 315 316 316 317 317 317 317 317 317 317 318 318 318 318 319 319 319 319 318 318 318 319 320 322 320 318 317 316 316 315 314 314 314 315 314 313 313 312 311 309 307 304 304 306 305
305 305 305 305 306 306 307 307 307 307 308 309 310 310 310 309 309 309 309 309 309 310 310 310 310 310 311 311 312 311 311 312 313 314 314 314 314 313 313 314 314 314 314 314 314 314 314 314 314 315 316 316 316 316 316 316 316 316 316 316 316 318 318 318 318 319 318 317 316 316 315 314 315 315 314 314 313 312 310 309 308 306 302 300 303
305 305 304 304 305 305 306 306 306 306 306 306 306 308 308 308 307 307 307 307 307 308 309 310 310 310 309 310 310 310 311 310 310 310 311 312 312 312 312 312 312 313 313 313 312 312 312 312 312 312 313 313 314 315 315 315 315 314 314 314 314 315 315 315 316 316 317 317 316 316 315 315 315 316 316 315 313 312 311 310 309 307 306 302 299
303 303 303 303 304 304 304 304 304 305 305 304 305 306 306 307 306 306 305 305 306 306 306 307 308 308 307 308 308 308 308 309 309 309 309 309 310 310 310 310 310 310 310 311 311 310 311 309 310 310 311 311 311 312 312 312 313 312 313 312 313 313 313 313 313 313 314 315 314 314 314 313 314 314 314 314 313 312 311 310 309 308 307 304 303
302 302 303 304 303 303 303 303 303 304 304 304 305 305 305 305 305 305 304 304 305 306 305 305 306 306 306 305 306 306 306 306 306 307 308 307 306 306 306 307 308 307 306 307 307 307 307 308 308 308 309 309 309 309 310 310 310 310 310 310 311 311 310 310 311 311 311 311 311 310 312 311 312 312 313 313 313 312 311 310 309 308 307 306 305
303 303 303 303 303 303 303 303 303 303 304 304 304 305 304 304 304 304 304 304 304 304 304 304 304 305 305 304 304 304 304 304 304 304 304 304 304 304 304 304 303 305 305 305 305 305 305 305 306 306 307 307 307 307 308 308 308 308 308 307 308 308 307 307 308 309 309 309 309 308 308 309 310 310 310 310 310 310 311 310 310 309 308 307 305
303 303 302 302 302 302 302 302 302 303 303 304 304 303 303 304 303 303 303 302 302 303 303 303 303 303 303 302 302 302 302 303 303 303 303 302 302 302 302 302 303 303 303 303 303 303 303 304 304 304 305 305 305 305 306 306 306 306 306 306 306 305 305 304 305 305 306 306 306 306 307 307 308 307 308 308 308 308 309 309 308 307 306 305 304
303 303 302 302 301 301 302 303 303 303 302 302 303 303 302 302 303 302 302 302 301 302 302 302 302 302 301 301 301 301 302 302 302 301 301 300 300 300 300 301 301 301 301 302 301 301 302 302 302 302 303 303 303 304 304 304 303 303 303 304 303 303 302 302 303 302 303 304 304 304 304 304 305 305 306 305 305 305 305 304 304 305 305 305 306
303 302 302 302 302 302 302 302 302 302 302 302 302 302 302 301 301 301 300 300 301 301 302 302 301 301 301 301 301 301 301 301 301 300 300 299 300 300 300 299 300 300 301 301 300 300 300 300 300 301 301 302 302 302 302 302 301 301 301 301 302 301 301 300 300 301 302 302 302 302 302 302 303 302 302 302 302 300 301 300 300 300 300 301 299
302 302 302 302 302 302 301 301 302 302 301 301 301 301 301 301 300 300 299 299 300 301 301 301 301 301 301 301 300 300 300 299 299 299 299 299 299 299 299 299 299 300 299 300 300 300 300 300 300 300 300 300 300 301 301 301 301 301 300 300 300 300 300 300 300 300 300 301 301 300 301 301 300 299 298 298 299 299 298 298 299 299 299 299 300
301 301 301 301 301 301 302 302 301 301 301 301 301 300 300 299 300 299 299 299 299 300 300 300 301 300 300 299 299 299 298 298 298 298 298 298 298 298 298 298 298 298 298 299 299 299 299 299 299 298 299 299 299 299 299 299 300 300 300 300 300 300 299 299 299 299 296 299 299 299 299 298 298 296 296 296 297 296 297 297 297 297 297 298 298
300 301 301 300 301 302 301 300 300 300 300 300 300 300 299 299 298 299 299 299 299 299 299 300 300 299 298 298 298 298 297 297 297 297 297 297 297 297 297 297 297 296 297 298 297 298 297 297 297 298 298 298 298 298 298 298 299 299 299 299 299 299 299 298 298 298 298 298 298 298 297 297 296 295 295 295 296 295 296 296 296 296 297 297 296
301 301 301 301 300 300 300 300 299 299 299 299 299 299 299 298 297 297 298 298 298 298 298 298 298 298 297 297 296 296 296 296 296 296 296 296 296 296 295 295 295 295 295 295 296 296 296 296 297 297 297 297 298 298 298 298 298 298 298 298 297 297 297 297 297 297 297 297 297 297 296 296 295 295 295 294 295 295 295 295 295 295 296 295 295
301 301 300 299 300 299 299 299 298 298 298 298 297 297 297 297 297 297 297 296 297 297 297 297 298 297 296 296 296 296 296 295 296 296 296 295 295 295 295 295 294 294 294 294 294 294 295 295 296 296 296 297 296 296 297 298 297 296 295 295 295 295 295 296 296 296 296 296 296 296 295 295 295 295 295 295 295 294 294 294 295 295 295 294 294
300 300 300 300 299 299 299 298 298 298 297 297 297 297 297 297 296 296 296 295 296 296 296 296 296 295 295 295 295 295 295 295 295 294 294 294 294 293 293 293 293 294 294 294 294 294 294 294 294 295 295 295 296 296 297 296 294 293 293 293 294 294 294 294 294 295 295 295 295 295 295 296 295 291 291 292 292 293 294 293 293 294 293 293 293
299 300 300 300 300 299 298 298 297 297 297 297 297 296 296 296 295 295 295 294 295 295 295 295 294 294 294 294 294 294 294 294 293 293 292 292 292 292 292 292 292 293 293 293 293 293 293 293 293 293 294 295 295 296 294 292 292 292 292 292 292 292 293 293 293 293 293 294 294 294 294 291 290 289 289 290 291 291 291 292 293 293 292 291 291
300 301 300 300 299 299 298 297 297 297 296 296 296 296 296 295 295 295 294 294 294 294 294 293 293 293 293 293 293 292 292 292 292 292 291 291 291 291 291 291 291 291 291 292 292 292 292 292 292 292 292 294 295 295 292 293 293 293 292 291 291 291 291 292 292 292 292 292 293 294 294 292 291 290 291 290 291 291 291 291 291 291 291 291 290
300 301 300 299 298 297 296 296 296 295 295 295 295 295 295 294 294 293 293 293 294 294 293 293 292 292 292 291 291 291 291 291 291 290 290 290 290 289 290 290 290 290 290 290 290 291 291 291 292 292 292 292 292 291 293 293 292 292 291 290 290 290 291 291 292 292 292 292 292 292 293 293 293 293 293 293 292 291 291 291 291 291 291 292 292
301 300 299 298 298 297 297 296 295 295 295 294 294 294 294 293 293 293 292 292 293 293 293 292 291 291 291 291 290 290 290 290 290 289 289 289 287 288 288 287 287 289 289 289 290 289 290 290 291 290 290 290 291 291 292 292 292 291 291 290 290 290 290 290 291 291 291 291 291 291 291 292 293 289 290 292 292 292 291 291 291 291 291 291 292
301 300 299 298 298 297 296 296 296 295 294 294 293 293 293 293 292 292 292 292 292 292 291 291 291 290 290 289 289 289 288 288 288 288 288 288 287 287 287 288 287 288 288 288 288 288 288 289 289 288 289 289 289 290 291 291 291 291 291 291 290 289 289 290 290 291 291 291 291 291 290 290 291 292 292 292 292 292 292 292 291 291 291 291 291
300 299 298 298 297 296 295 294 294 293 293 293 292 292 292 291 292 291 291 291 291 291 290 289 289 289 288 288 288 287 287 287 287 287 286 286 286 286 286 286 287 287 286 286 287 286 287 287 287 287 288 287 289 290 290 290 290 291 291 290 289 289 289 289 290 290 291 291 291 291 290 290 290 291 291 291 291 291 291 290 289 289 289 290 290
299 298 298 297 296 295 294 293 293 292 292 292 292 292 291 291 291 290 290 290 290 290 289 288 288 288 288 287 287 286 286 286 286 285 285 285 285 285 285 286 286 286 286 286 286 286 286 286 286 286 287 287 287 289 289 290 290 290 290 288 288 288 288 288 289 289 290 290 290 290 290 290 290 290 290 291 291 290 289 288 287 287 288 288 289
299 298 297 297 296 295 294 292 292 292 291 290 290 290 290 290 289 289 289 289 289 288 287 287 287 287 287 286 286 285 285 284 284 284 284 284 284 284 285 286 285 285 285 285 285 285 286 286 286 286 286 286 286 287 289 289 289 289 289 287 286 286 286 287 287 288 289 290 290 290 290 289 289 289 290 291 291 290 288 287 287 287 287 287 287
297 296 295 295 294 292 292 291 290 289 289 289 289 289 290 288 288 288 288 287 287 286 286 286 286 286 285 286 285 284 283 283 283 282 282 282 283 283 284 285 284 284 284 284 285 285 286 286 285 285 285 285 285 286 287 288 289 289 288 286 286 286 286 286 287 288 289 289 289 287 287 289 288 288 289 290 291 289 287 287 286 286 286 286 287
295 294 292 292 291 291 290 289 288 287 288 288 288 288 288 287 287 287 287 286 285 284 284 284 284 285 285 284 284 283 282 281 280 281 281 280 281 282 283 284 284 283 283 284 285 285 284 285 285 285 285 285 285 285 287 288 289 289 288 286 286 285 285 285 286 286 287 288 288 288 287 288 288 288 290 291 291 289 287 287 287 286 285 285 286
293 292 292 290 289 288 288 287 286 286 286 286 287 287 286 286 286 286 284 283 282 283 283 283 283 283 283 282 281 281 280 279 279 279 280 280 281 282 282 282 282 282 283 284 284 284 283 283 284 284 285 285 285 285 286 288 288 289 289 287 286 285 284 284 285 285 285 286 287 287 288 289 290 291 291 291 291 291 289 288 287 286 285 285 287
291 290 288 288 288 288 287 286 286 285 285 285 286 286 285 285 285 283 282 281 281 282 282 281 281 281 280 280 279 279 278 278 279 278 279 279 280 280 281 281 281 282 282 282 281 282 282 283 284 284 284 285 285 285 286 287 288 289 289 288 286 285 285 285 285 285 285 285 285 286 287 288 290 290 290 290 290 290 290 288 287 286 286 287 288
289 288 288 287 286 285 284 283 284 283 283 283 284 284 283 284 282 280 279 279 280 280 280 279 279 278 278 278 278 278 278 277 278 278 278 278 279 280 280 280 281 281 280 280 281 282 282 283 283 284 284 285 286 286 286 286 288 288 289 289 286 285 286 285 284 284 285 285 285 286 286 287 288 288 289 289 289 290 289 288 287 289 289 289 287
286 286 287 286 284 283 282 282 281 280 280 280 282 281 281 281 278 277 278 278 278 278 278 278 277 277 277 277 277 277 276 277 277 278 277 277 278 279 279 280 280 280 280 280 280 281 281 282 282 284 284 285 285 286 286 286 287 288 288 289 289 287 288 286 285 284 284 284 285 285 286 286 287 287 288 288 288 288 288 287 288 288 288 289 288
286 286 286 285 283 282 281 280 279 278 277 277 278 278 279 277 275 276 277 277 277 277 277 276 276 276 276 276 276 276 276 276 277 277 277 277 277 278 279 280 280 280 280 280 281 281 281 281 281 282 283 284 285 285 286 286 286 287 288 289 288 288 289 286 285 285 285 285 285 285 285 286 287 287 287 287 288 287 286 287 288 288 288 287 286
283 282 284 283 282 280 279 278 277 276 276 274 275 275 275 274 274 275 275 275 276 276 275 274 274 274 274 274 274 275 275 276 276 276 276 277 277 277 277 279 279 279 279 279 280 280 280 281 281 281 282 283 284 284 285 285 285 286 287 288 288 288 288 288 286 285 285 285 285 286 286 286 286 287 287 287 287 286 287 287 287 287 286 285 285
280 280 281 282 281 280 278 276 275 274 273 273 273 273 272 272 274 274 275 275 274 273 273 273 273 273 273 273 273 274 275 275 275 276 276 276 276 276 277 277 278 278 279 279 279 279 280 279 280 280 281 281 282 283 283 284 285 285 286 287 287 287 286 286 285 285 285 286 286 286 286 286 286 286 285 285 284 285 285 286 286 285 285 284 284
279 279 279 279 278 277 277 275 273 273 272 271 271 272 272 273 273 275 275 274 272 272 272 272 272 272 272 273 272 273 273 274 274 275 275 275 276 276 276 276 277 277 278 278 278 278 278 278 279 279 280 280 280 281 282 282 284 284 285 285 285 285 285 285 285 285 285 285 285 285 285 286 285 285 285 285 285 285 284 284 285 285 285 285 284
278 278 278 278 277 275 275 274 272 271 270 270 270 271 272 273 273 273 272 271 271 271 271 271 271 271 272 272 272 273 273 273 273 273 273 274 275 275 275 275 276 276 276 276 276 276 277 277 277 278 278 279 279 280 281 281 282 283 284 284 284 284 284 284 284 285 285 285 285 285 285 285 285 285 284 284 284 284 285 284 284 285 285 284 283
275 276 276 275 274 273 272 272 270 270 269 269 269 271 272 271 270 270 270 269 270 270 270 270 271 271 271 272 272 271 271 271 272 272 273 274 274 274 274 275 276 277 277 276 276 276 277 278 278 278 277 277 278 278 280 283 283 284 283 283 283 283 284 284 285 286 285 285 285 284 283 283 283 283 283 282 283 283 283 284 284 283 282 281 280
274 273 272 271 271 270 270 269 269 268 268 268 269 271 270 269 269 269 269 269 269 269 269 270 270 271 271 271 270 270 270 271 271 271 271 272 275 276 276 275 275 277 279 280 280 277 277 278 277 278 279 278 277 279 282 283 283 284 284 285 285 285 286 286 286 286 285 284 283 282 282 282 282 282 281 281 281 282 282 282 281 282 281 280 279
272 270 270 269 268 267 267 267 267 267 267 268 269 269 267 267 267 268 268 268 268 268 269 269 270 269 270 269 269 269 270 270 270 270 270 271 271 273 276 277 277 277 278 278 279 280 280 281 279 278 279 281 282 282 283 283 283 284 284 284 285 285 286 286 286 285 283 283 282 281 282 282 282 282 281 281 281 281 281 281 280 280 279 278 276
Wind_Speed
6 4 4 6 6 6 6 7 8 10 10 11 12 12 12 11 11 11 10 10 9 9 8 9 9 9 9 9 9 9 9 9 9 10 10 9 6 7 7 7 5 6 8 9 8 8 8 7 8 9 8 8 8 8 8 8 7 7 7 7 8 8 6 6 5 3 4 6 7 10 10 9 10 10 11 9 9 8 8 9 8 8 9 8 9
3 4 6 7 6 7 6 6 7 10 11 12 13 13 12 12 12 11 9 10 10 10 8 9 8 8 7 8 8 7 7 8 8 8 8 8 9 8 8 9 9 10 8 9 9 9 9 8 9 10 8 6 5 5 6 7 8 8 6 6 6 8 7 5 5 5 5 7 6 6 7 7 9 9 11 11 11 9 10 10 9 10 10 9 8
4 5 6 6 7 7 6 6 7 8 9 10 10 11 11 11 11 10 9 9 9 9 9 8 8 8 7 6 6 6 6 6 6 6 6 7 9 10 10 9 8 7 6 7 8 9 10 9 9 6 5 4 5 6 7 9 9 9 8 7 6 6 7 5 6 8 6 5 5 4 7 7 5 6 8 11 10 10 9 10 10 10 11 10 8
5 5 5 6 6 6 5 5 6 6 6 8 9 10 8 9 9 10 9 9 8 9 8 7 7 7 7 7 5 5 4 4 6 6 6 7 8 8 9 8 9 9 10 9 8 8 8 8 6 6 7 6 7 8 8 9 9 8 8 8 7 7 5 7 7 8 7 4 5 5 3 2 9 5 6 7 11 12 11 10 9 9 10 9 8
3 3 3 3 4 5 5 5 4 5 6 6 6 7 6 8 8 8 7 8 7 7 8 7 6 6 6 5 5 5 5 4 5 6 7 7 7 6 7 8 9 9 9 8 7 8 7 7 7 7 8 8 8 8 10 10 9 7 6 6 8 9 7 6 6 8 9 9 8 3 3 3 6 8 7 8 6 8 10 11 9 9 8 9 8
3 2 1 1 1 3 3 4 4 5 5 5 5 6 5 5 7 7 6 6 7 7 8 7 7 8 8 7 8 8 8 7 8 8 6 7 7 6 7 7 7 8 9 9 8 7 8 8 8 7 7 6 4 6 5 4 5 6 7 8 10 10 8 5 7 6 10 11 12 10 8 8 6 1 4 7 2 5 6 8 9 10 8 8 8
2 2 1 2 3 3 4 3 4 5 4 3 2 4 5 5 6 7 6 5 6 7 8 7 7 8 9 9 8 8 7 6 5 5 6 5 5 6 6 6 7 8 8 7 8 6 7 8 9 8 8 7 7 7 8 8 8 9 9 9 9 7 7 9 10 6 4 8 9 11 10 9 7 5 7 6 13 6 6 6 7 7 8 9 10
1 2 3 3 3 2 4 4 3 3 3 4 5 4 6 5 6 6 5 5 6 6 7 7 7 7 7 8 7 7 7 6 5 5 5 5 5 5 5 5 5 5 6 7 8 9 8 7 7 7 8 9 8 8 9 10 9 7 7 7 6 6 8 9 9 9 7 5 8 9 9 10 11 10 8 9 11 14 13 8 8 7 8 11 11
1 2 3 3 4 4 4 4 4 4 3 4 5 6 6 6 6 6 6 6 6 7 7 7 6 6 7 7 7 6 6 5 4 4 3 4 4 4 6 6 5 5 6 7 6 7 7 7 7 7 7 7 5 5 6 6 6 7 7 8 8 9 9 9 8 10 10 10 4 6 8 9 8 8 9 9 10 11 16 11 11 8 10 12 10
3 3 4 4 4 4 4 5 5 4 4 5 5 5 6 6 7 7 7 5 6 7 6 7 6 6 5 6 6 5 4 3 3 4 4 3 5 6 6 6 5 6 6 6 5 7 8 7 8 9 9 9 7 9 7 8 9 9 11 11 11 11 9 10 10 10 9 10 10 7 6 5 5 6 8 9 9 11 14 16 10 12 13 10 8
3 4 5 5 4 5 5 6 6 6 5 6 6 6 6 7 7 8 7 6 5 7 6 7 6 5 5 4 5 5 4 4 4 4 4 4 5 5 5 5 5 5 4 5 6 6 6 7 7 9 9 7 7 7 8 6 5 6 7 8 9 10 9 9 10 11 10 10 11 9 9 8 9 10 9 8 9 9 9 14 13 10 12 16 13
4 4 5 5 6 5 5 6 7 7 7 7 6 7 7 7 8 9 7 7 7 6 6 6 5 5 4 4 4 3 4 4 4 4 4 5 5 5 4 4 4 4 5 5 5 6 6 7 7 8 7 7 7 7 9 8 7 6 6 6 7 9 10 9 9 11 12 10 11 10 10 10 10 10 8 8 10 9 11 16 15 13 12 13 12
4 4 4 4 4 5 5 6 6 6 6 7 7 6 7 8 8 9 8 7 7 6 7 6 5 4 3 3 2 1 3 2 3 4 4 4 4 4 4 4 4 4 4 4 5 5 5 6 6 5 6 6 7 7 7 8 8 8 8 7 7 8 8 10 10 11 11 11 11 11 11 11 12 11 9 9 9 10 10 12 14 9 13 16 13
4 4 4 4 4 4 5 5 5 5 6 6 6 6 6 6 7 8 7 6 7 7 7 6 6 5 4 4 3 3 3 3 3 3 3 3 3 3 4 4 4 4 5 5 4 5 5 5 6 7 7 7 7 8 8 8 8 9 9 9 9 8 7 9 9 10 10 12 11 10 10 10 10 9 11 10 10 9 10 12 12 11 12 14 13
4 4 4 4 4 5 5 5 5 5 6 5 5 6 6 6 7 8 8 7 7 6 6 6 5 5 4 3 3 3 2 2 2 1 1 2 2 2 3 3 3 4 4 4 4 5 6 6 6 7 7 7 7 7 6 6 6 6 7 8 9 9 8 6 6 7 9 10 10 10 9 10 10 9 8 10 9 10 11 10 8 13 14 13 13
4 4 5 5 5 5 5 5 5 5 6 5 6 5 6 7 7 7 8 7 7 7 6 6 5 5 5 4 4 3 2 1 1 1 1 1 2 2 3 3 4 4 4 4 5 5 5 5 6 6 7 7 7 8 8 7 7 8 8 8 9 6 7 9 9 8 9 8 8 8 8 10 9 10 9 9 10 9 8 8 9 10 12 16 15
4 4 4 5 5 5 5 5 5 5 5 6 6 6 6 6 7 8 8 7 7 7 6 6 6 6 6 5 4 4 4 4 3 3 2 2 2 2 3 3 4 4 4 4 5 5 5 5 5 5 6 6 6 7 7 7 7 7 7 8 9 9 9 9 9 9 9 10 10 11 10 9 8 7 8 9 10 9 9 9 9 11 10 12 14
4 5 5 5 5 5 5 5 6 6 6 6 7 6 6 6 7 7 7 8 7 7 7 6 6 6 6 6 6 5 4 4 4 4 4 3 3 3 3 4 5 5 5 4 5 5 5 5 5 5 5 5 6 6 6 7 7 7 8 8 7 7 8 8 9 9 9 8 9 9 8 9 9 9 10 8 8 8 8 9 10 10 10 13 12
5 5 4 4 4 4 5 6 6 6 6 6 6 6 6 7 7 7 8 7 7 6 6 6 6 5 5 6 6 6 6 5 5 5 4 4 5 5 5 5 4 5 5 5 5 5 5 5 5 5 5 5 5 6 6 6 6 7 7 7 7 7 8 9 8 8 8 8 9 10 9 10 10 10 10 10 10 10 9 8 8 8 9 11 13
5 5 4 4 4 4 4 4 5 5 5 5 6 5 7 6 7 7 8 7 8 8 7 8 7 7 6 6 7 6 6 6 6 5 5 5 5 5 5 5 5 5 5 6 5 5 6 6 5 5 6 6 6 5 5 5 6 6 6 7 7 7 8 9 9 9 7 8 10 11 11 10 10 9 10 9 9 8 9 10 10 11 11 11 11
5 5 5 5 5 5 5 5 5 5 5 5 5 6 6 6 7 7 7 8 8 7 7 7 6 7 7 7 6 6 6 5 5 5 5 5 4 5 5 4 4 4 5 5 5 6 6 6 6 6 6 6 6 6 5 5 5 6 6 7 7 8 9 10 9 10 9 9 10 10 11 11 11 11 10 9 10 10 10 9 9 8 9 7 7
7 6 6 5 5 5 5 4 4 4 5 5 5 5 6 6 5 6 6 6 6 6 6 6 6 6 7 6 6 5 4 4 5 5 5 5 5 4 5 4 4 4 4 4 5 5 5 6 6 6 6 6 6 6 6 5 6 6 7 5 6 9 9 10 9 10 10 8 9 11 12 12 10 11 11 11 10 10 9 9 10 9 11 12 11
8 7 6 5 6 6 5 5 5 5 5 5 5 5 5 6 6 6 6 6 5 5 5 5 6 6 6 5 4 4 4 4 5 5 6 6 5 5 4 5 4 4 4 4 5 5 5 5 5 5 6 6 6 6 5 6 6 7 7 7 7 8 9 9 10 11 10 9 10 10 12 11 9 10 10 10 10 10 9 10 12 9 10 11 7
7 6 6 6 6 6 6 7 6 5 5 5 5 5 5 5 5 5 6 5 4 4 4 5 6 6 6 6 5 5 6 7 7 6 7 6 5 4 4 5 5 4 5 4 4 5 5 5 5 6 6 6 6 6 6 5 7 7 7 8 8 7 7 9 10 10 10 9 10 11 11 10 9 10 10 9 9 9 10 10 12 11 11 13 11
8 8 8 8 8 8 7 6 6 5 5 5 4 5 5 5 5 5 5 5 4 4 4 4 5 7 7 7 7 6 6 7 6 5 6 5 5 5 5 5 5 6 6 5 5 5 5 5 5 6 7 6 6 6 7 7 7 6 7 7 8 8 8 9 9 10 10 10 11 11 11 9 9 10 12 10 8 10 10 10 11 10 10 11 11
10 9 9 10 8 6 6 6 5 5 5 4 4 5 5 5 5 4 4 4 4 4 4 5 5 6 6 7 6 5 6 6 6 5 5 5 4 5 5 5 5 6 6 5 6 5 5 6 6 6 6 6 6 6 7 7 7 7 7 8 8 8 8 8 9 10 10 9 10 11 11 10 10 11 12 11 10 11 11 11 12 11 11 10 12
11 10 8 7 7 8 7 6 5 5 4 4 4 5 5 5 6 5 5 5 4 5 5 4 4 5 5 6 5 5 5 5 5 4 4 4 4 4 4 5 5 5 5 5 5 5 4 5 6 5 6 6 6 6 6 7 7 7 7 8 8 9 9 9 8 9 9 10 11 11 11 11 11 11 12 12 11 11 11 12 12 12 12 12 12
9 9 9 10 9 8 8 7 7 5 5 5 4 4 5 5 5 4 4 4 3 4 4 4 3 4 5 5 5 4 4 4 4 4 4 4 4 4 4 4 3 4 3 4 5 6 5 5 5 5 6 6 6 6 6 6 6 7 7 8 8 9 10 10 9 9 9 10 10 11 11 11 12 11 11 11 11 11 10 12 11 10 11 12 12
10 10 10 10 10 9 9 8 6 6 6 6 5 5 5 5 4 4 4 5 4 4 3 3 3 4 4 4 4 3 3 4 4 3 4 4 4 3 3 3 3 4 4 4 5 5 6 6 5 5 5 5 5 5 4 4 6 8 8 9 9 9 9 10 11 10 9 10 10 10 11 11 11 13 16 16 16 15 13 14 14 10 10 11 12
12 12 11 10 10 9 9 8 7 7 7 6 5 5 4 5 5 5 5 4 3 3 2 2 3 3 4 4 4 4 3 3 4 4 5 5 4 5 5 4 5 4 4 5 5 5 6 6 6 6 5 5 5 5 6 8 7 7 9 8 9 9 9 10 10 11 10 9 10 11 11 14 16 17 17 18 19 19 20 17 15 13 12 11 12
12 12 11 11 10 9 8 8 7 7 6 5 5 5 5 6 5 5 4 3 2 1 2 2 3 3 4 4 4 4 3 4 4 4 4 4 5 5 5 6 5 5 5 5 5 6 5 6 6 6 6 6 6 5 9 9 10 11 9 9 9 9 9 9 9 10 12 12 10 10 10 11 12 13 14 17 17 19 20 21 23 22 19 16 14
14 13 11 10 9 9 8 8 7 6 6 5 5 5 5 5 4 4 3 1 1 2 2 2 3 3 4 4 4 4 4 3 4 4 5 4 5 5 4 5 6 5 5 6 6 6 6 6 6 6 7 6 6 8 12 11 11 12 11 9 9 9 9 9 9 10 10 10 12 11 10 9 9 11 12 12 15 18 19 21 22 22 21 22 21
13 12 11 10 10 9 9 8 7 6 5 5 5 5 5 4 3 3 1 1 1 1 2 2 3 3 4 3 3 4 3 3 4 4 4 4 3 4 3 4 5 6 7 6 7 7 7 7 7 8 8 8 8 9 12 13 13 13 13 12 9 9 10 11 10 11 11 12 11 11 12 9 8 12 12 12 12 14 16 20 21 22 22 22 21
10 10 10 10 8 8 8 7 7 6 6 6 5 5 5 3 3 1 1 2 2 1 2 2 3 4 4 4 3 4 4 4 4 5 5 6 4 5 5 6 4 5 6 7 6 9 8 7 8 9 10 9 9 10 13 14 14 14 13 12 10 11 11 12 12 11 11 12 11 11 12 12 11 10 10 12 12 13 13 13 12 11 11 14 17
12 11 10 10 10 10 9 8 7 7 6 5 5 4 4 3 2 2 2 2 2 2 3 3 3 3 4 3 4 4 4 5 5 4 3 4 4 4 5 4 4 4 5 7 8 8 9 7 9 8 9 10 9 12 14 15 14 13 14 13 10 10 11 12 12 11 12 12 12 11 11 12 13 12 9 11 12 13 13 13 12 13 13 12 12
10 12 12 11 11 11 10 9 7 7 5 4 5 4 3 3 3 3 3 2 2 2 3 3 2 3 3 3 3 4 5 5 5 4 4 4 4 4 6 6 4 5 5 6 6 6 8 9 8 8 10 13 12 13 14 15 15 13 16 11 9 10 11 12 13 12 12 11 11 11 11 12 13 13 13 15 14 13 13 15 16 14 14 12 12
8 10 11 10 10 10 10 9 8 6 6 5 5 3 4 5 4 3 3 3 3 3 3 2 2 3 3 3 3 3 4 3 4 4 5 5 6 7 5 4 6 6 6 7 8 8 8 8 10 8 9 12 13 14 13 16 17 16 12 9 9 9 11 12 12 12 11 12 12 11 11 12 13 13 14 16 17 16 13 16 15 16 14 13 12
11 11 11 11 10 10 9 8 8 7 5 5 4 4 5 5 4 3 4 3 3 3 2 2 2 2 3 2 3 3 3 3 4 5 5 5 5 5 4 4 6 8 9 8 8 9 9 7 8 10 10 11 14 17 17 15 16 16 12 10 9 9 11 11 11 12 10 10 13 17 14 12 13 14 17 18 18 15 12 14 14 15 17 16 13
10 13 13 12 11 11 10 9 8 8 5 4 4 5 6 5 4 4 4 4 3 2 2 3 2 3 2 3 3 2 3 3 4 4 5 7 7 6 5 5 6 7 8 7 7 9 11 11 9 9 13 13 12 16 19 17 16 16 12 7 9 9 10 11 10 12 11 11 11 12 16 15 14 16 21 20 20 15 12 12 13 13 15 17 15
11 10 11 12 12 11 10 9 8 7 5 4 5 5 3 5 5 4 4 4 3 3 2 2 3 3 3 3 3 4 5 6 7 7 7 6 6 6 7 7 8 6 7 8 8 8 12 13 12 10 11 12 13 14 16 20 17 17 16 9 7 10 10 11 11 11 12 11 12 12 12 16 17 18 19 20 19 17 13 11 11 12 13 15 13
12 12 12 11 9 9 9 8 7 5 4 3 5 6 5 5 5 5 4 3 2 3 3 3 4 4 4 5 6 6 7 6 6 6 6 6 6 7 8 7 9 7 7 9 10 10 11 13 12 11 11 11 11 13 15 19 18 17 17 14 8 10 10 10 11 12 11 12 12 12 11 14 17 17 17 19 19 19 17 13 12 12 13 15 16
11 12 12 10 10 10 10 8 6 5 3 1 3 4 5 5 5 5 4 3 3 4 4 5 5 6 6 7 7 7 7 6 6 6 7 7 5 6 6 7 6 7 9 11 10 9 10 12 12 13 11 12 12 15 14 15 17 17 16 16 10 10 11 10 11 12 13 12 11 12 11 14 18 19 20 19 21 21 21 14 14 18 24 24 16
13 11 9 10 10 10 9 8 6 4 3 3 3 5 5 5 5 5 4 4 5 5 6 5 6 6 7 7 7 8 8 6 6 6 7 9 7 7 8 7 7 8 9 11 11 10 10 12 12 11 11 11 11 12 16 14 15 16 17 16 17 14 17 11 11 13 13 13 12 13 13 17 18 19 21 25 26 29 22 16 23 25 26 24 18
8 9 10 9 10 9 9 7 6 5 4 4 4 5 5 6 6 4 4 4 5 6 5 6 6 7 7 7 7 7 7 6 6 7 7 7 8 8 8 6 6 7 8 9 8 9 9 11 13 14 13 12 11 11 13 16 14 15 17 18 17 18 18 12 11 12 12 12 13 13 14 20 24 25 27 28 28 27 19 24 25 26 24 19 13
9 8 8 7 8 10 9 8 6 6 5 5 4 5 6 7 4 4 4 5 5 5 6 6 7 7 6 6 6 7 7 5 5 6 7 7 7 7 8 7 6 6 7 8 9 8 9 10 11 13 14 13 12 12 12 14 16 15 16 18 18 18 17 17 13 11 12 12 15 23 25 25 24 24 26 26 22 21 23 23 25 23 18 11 10
8 8 6 7 8 8 8 8 7 6 5 5 5 5 6 5 4 4 4 4 5 6 6 6 6 5 5 6 6 6 4 4 6 5 5 6 7 8 7 7 6 6 6 8 8 9 9 10 11 12 13 13 14 14 14 13 12 12 11 14 16 15 15 15 16 16 20 23 23 22 23 22 19 17 14 12 13 14 18 20 21 20 12 10 10
9 8 8 7 8 7 8 8 7 5 5 5 5 6 5 4 4 4 4 5 5 5 5 5 5 5 5 4 5 4 5 5 4 4 5 5 5 6 7 8 6 7 8 8 8 9 10 9 10 12 13 14 14 14 14 13 10 10 9 10 11 13 17 18 14 12 12 12 15 15 13 17 19 24 23 19 18 18 15 13 10 10 9 9 8
7 7 5 6 6 7 7 7 6 5 4 4 5 5 4 4 4 5 5 5 5 5 4 4 5 5 4 4 5 7 7 6 5 5 6 6 5 6 6 8 7 6 8 9 8 10 10 10 11 13 14 14 15 14 13 13 12 12 12 12 13 14 14 12 13 12 11 13 14 15 16 13 12 12 10 8 8 9 10 10 9 8 7 5 2
8 6 5 6 7 7 7 7 6 5 4 4 4 4 5 6 5 5 5 5 5 5 4 4 4 4 4 4 4 4 5 7 7 7 6 6 7 7 9 10 10 7 8 9 10 12 12 11 11 13 14 15 15 17 16 14 18 24 21 18 16 15 15 14 15 19 18 16 14 13 12 12 11 11 10 9 9 9 9 9 9 6 2 2 2
7 6 7 7 7 8 8 7 5 5 5 4 5 5 5 5 4 5 5 6 5 4 4 3 3 3 3 4 4 5 5 5 6 7 9 10 10 13 12 11 13 13 16 19 18 15 14 12 14 15 13 15 16 17 26 34 34 33 33 33 29 29 28 23 25 30 23 17 15 14 13 11 11 9 9 9 9 9 8 7 4 3 2 2 3
7 8 7 7 7 7 7 7 5 5 5 4 5 5 5 5 5 5 5 5 4 4 3 3 3 3 4 5 5 5 5 6 6 7 7 9 12 10 12 18 20 23 24 24 23 26 28 26 20 18 19 27 31 32 32 31 32 32 33 34 34 30 30 29 29 20 15 14 13 12 13 12 11 10 9 9 8 8 7 7 4 2 1 2 4
Wind_Direction
107 130 155 172 171 175 184 190 198 200 205 205 202 204 205 202 199 204 196 195 199 203 206 208 210 215 221 226 229 230 230 231 230 227 226 227 225 219 211 214 211 213 214 217 223 218 223 224 223 225 215 217 223 223 217 219 218 219 225 219 228 231 225 222 227 215 267 272 253 251 249 239 240 236 239 235 230 229 230 237 236 238 239 237 236
137 194 193 182 188 183 177 189 194 197 202 203 204 204 204 205 205 201 196 194 199 201 202 208 211 216 219 221 227 233 226 222 234 234 226 220 223 227 223 225 218 221 217 211 217 222 232 232 235 238 232 212 212 224 231 229 232 224 214 225 212 224 238 208 204 165 233 243 271 272 258 247 228 222 230 232 231 224 227 232 233 234 233 233 233
196 205 180 187 174 178 183 191 197 207 199 202 204 201 202 204 207 203 198 197 197 198 204 207 210 218 223 226 222 231 239 251 245 239 234 233 229 228 233 227 212 216 205 207 216 218 223 225 229 211 185 196 222 231 233 234 226 222 215 220 229 218 234 229 208 184 236 236 246 288 279 297 263 226 221 234 227 223 225 226 230 233 234 232 231
245 222 197 181 176 183 190 192 194 195 201 196 196 199 197 202 202 201 200 197 195 196 203 215 219 220 221 237 237 241 250 251 251 258 252 234 231 229 234 236 230 233 225 211 215 221 223 225 225 218 218 193 209 224 230 230 220 220 214 213 221 243 207 227 208 201 213 215 262 212 279 313 297 261 265 240 214 225 218 224 221 226 228 230 230
272 232 197 189 184 186 184 182 175 185 196 192 187 190 194 195 194 195 197 195 193 187 189 204 221 220 220 220 238 248 250 249 239 239 238 244 257 258 255 243 239 236 229 219 218 224 228 234 236 235 235 230 218 223 228 224 211 210 207 215 218 228 233 228 216 206 216 212 233 263 246 244 230 274 295 275 243 232 223 225 219 223 220 221 223
246 249 248 217 198 142 152 166 183 197 192 190 189 192 185 181 183 182 187 191 193 185 181 187 200 209 207 212 215 222 230 228 232 243 246 241 240 236 245 255 259 252 248 242 225 208 227 223 226 233 234 234 232 234 253 270 249 230 218 218 226 226 241 229 243 202 211 216 224 235 243 262 283 299 24 290 164 242 261 228 226 220 220 222 224
151 185 185 170 148 150 139 139 155 168 142 129 151 176 173 169 171 171 175 178 181 178 178 180 194 206 213 216 221 226 231 238 244 248 255 259 260 256 262 262 257 265 272 272 270 237 215 223 226 229 231 228 221 227 234 234 238 231 224 209 213 205 205 240 241 238 202 228 225 236 249 258 265 272 256 297 290 264 227 252 228 223 221 222 229
84 104 111 100 98 98 112 112 131 116 133 157 160 165 165 154 151 159 160 160 161 172 174 180 190 199 205 212 219 224 230 242 240 240 248 257 267 282 279 273 280 277 277 282 282 279 280 276 266 250 238 238 227 211 212 217 227 228 218 218 222 221 219 223 237 232 216 233 206 230 240 250 253 254 257 259 271 291 285 255 243 227 235 236 235
56 109 91 85 89 85 95 101 100 107 119 135 136 142 147 145 145 150 148 151 152 171 171 178 189 188 195 201 210 225 233 244 262 270 305 319 302 291 274 280 280 275 268 271 268 275 279 274 270 265 259 256 243 240 246 245 239 237 227 227 226 226 220 219 223 232 234 244 178 227 230 233 232 235 248 245 255 271 275 270 266 243 236 244 239
67 74 78 82 82 87 86 98 94 91 101 110 110 115 124 134 139 143 136 143 142 152 168 170 178 186 188 196 207 208 217 241 266 276 289 317 284 282 286 283 279 276 277 279 288 280 275 277 275 274 273 270 271 271 260 239 228 226 226 223 220 220 218 227 232 238 237 244 239 228 208 219 247 252 239 234 240 239 262 279 273 283 276 253 222
88 82 83 84 87 94 102 95 97 97 97 99 103 105 104 107 111 106 97 99 125 140 155 157 166 180 189 196 201 216 224 241 248 249 252 257 258 266 265 272 274 276 282 284 279 279 279 281 280 278 282 285 275 273 272 268 258 248 243 240 236 232 235 233 235 241 243 245 243 240 246 232 231 237 233 210 222 240 250 264 271 244 253 278 261
104 101 100 104 100 96 97 94 94 96 95 94 97 107 112 114 119 120 121 122 123 128 143 145 157 168 187 190 202 215 223 231 246 265 275 286 289 286 288 285 275 277 280 281 276 275 278 278 280 281 279 282 284 282 281 276 274 256 243 241 242 236 235 232 233 237 237 243 244 242 243 241 240 233 236 227 230 242 243 263 271 282 281 266 277
98 96 98 96 91 94 91 90 88 78 80 88 93 98 108 118 122 116 116 123 124 132 133 134 141 146 152 171 202 339 345 272 265 262 280 278 278 281 287 286 290 274 261 270 275 272 272 273 268 275 285 282 283 286 285 286 282 279 273 252 236 239 234 229 233 236 235 235 238 238 241 242 243 246 245 244 247 251 251 264 268 277 276 287 282
85 82 78 78 79 75 78 81 79 81 83 83 85 89 93 98 101 104 106 112 120 126 130 132 135 136 141 144 156 169 188 208 222 234 241 260 271 282 278 285 292 292 298 293 301 313 304 301 299 286 278 283 290 291 292 293 298 293 294 289 284 269 247 242 241 243 240 241 245 250 245 246 249 246 246 246 247 250 254 255 272 275 270 276 287
82 83 77 80 72 74 76 76 77 80 86 83 84 91 95 99 103 104 103 103 110 115 121 123 120 127 132 138 156 161 171 180 192 196 242 260 290 286 284 290 288 300 303 311 324 320 313 306 299 296 293 287 285 283 284 282 275 274 273 276 278 282 286 271 256 251 255 256 251 247 252 250 255 256 253 256 256 253 255 257 262 278 284 278 275
98 96 88 73 72 75 75 73 70 71 74 74 78 81 86 90 95 95 97 97 96 97 95 97 100 96 94 100 96 80 80 72 100 81 25 357 333 319 313 303 312 315 310 314 317 311 307 304 300 295 296 292 287 285 283 283 285 282 281 280 278 280 279 278 279 275 270 267 265 262 259 257 253 250 248 251 254 257 256 257 258 261 272 285 288
111 104 97 94 78 66 66 69 72 69 64 62 60 65 78 88 91 90 87 83 80 81 85 87 95 95 86 84 80 78 71 56 48 38 17 7 346 332 325 328 316 312 319 324 314 311 307 307 303 300 299 298 298 296 294 290 289 286 282 285 285 286 285 284 282 278 277 276 272 269 270 275 269 266 261 254 253 249 246 250 243 246 246 259 277
101 92 85 85 78 75 68 59 60 68 73 72 64 54 55 62 75 83 79 76 72 73 70 71 77 76 72 69 65 61 59 57 47 34 27 21 11 4 358 346 350 340 322 317 319 319 319 315 310 310 308 306 304 303 299 296 293 287 286 285 288 290 288 287 283 284 283 282 279 279 275 274 272 273 270 269 266 258 250 244 244 237 231 241 252
128 125 116 101 91 79 71 75 69 66 64 64 64 67 69 64 64 71 74 70 71 69 72 64 61 60 59 58 57 55 50 48 42 33 34 29 23 14 4 352 345 346 338 337 330 331 330 330 322 316 314 314 312 309 309 302 299 294 293 291 291 292 288 284 285 285 285 287 284 281 278 274 276 274 271 268 263 260 257 254 246 239 236 236 249
145 135 124 114 101 90 85 87 78 68 65 62 64 65 65 66 70 75 76 73 69 64 65 65 55 57 57 59 52 53 51 49 42 36 40 32 28 15 6 1 354 338 342 335 334 334 334 332 331 322 317 316 313 311 311 306 301 295 295 292 292 295 291 286 286 284 285 280 278 276 273 273 276 275 271 268 267 261 259 259 254 251 245 236 235
150 142 135 126 115 106 95 86 79 72 62 59 58 57 59 62 66 64 73 71 69 65 66 63 62 59 56 54 49 45 48 49 51 44 45 37 31 21 15 352 336 349 346 341 339 344 338 335 330 325 323 319 317 314 312 307 299 294 293 292 295 293 287 285 285 285 282 281 282 280 278 277 277 275 273 274 273 274 270 264 261 256 257 244 234
155 150 142 136 127 115 107 97 91 83 78 76 72 71 66 65 63 66 64 67 75 69 71 73 70 67 63 60 55 49 45 47 58 52 44 39 29 23 5 349 351 350 346 339 345 342 340 334 328 323 318 317 313 313 314 311 304 302 295 295 291 290 289 286 287 285 284 283 281 278 279 278 278 276 276 274 271 272 268 267 263 257 256 255 235
158 152 147 141 137 136 128 122 111 103 96 89 80 75 75 73 68 64 66 62 64 76 80 88 86 82 76 70 62 50 40 50 55 48 36 28 18 11 5 350 352 340 344 350 342 341 335 330 322 320 318 313 312 309 307 300 294 289 289 287 286 288 287 288 286 285 286 286 282 277 278 280 279 276 273 273 276 273 273 269 268 262 262 263 256
148 147 148 148 143 138 138 135 127 118 108 99 93 90 85 76 75 75 70 63 58 58 76 91 93 87 81 72 60 47 42 38 43 39 30 23 11 6 357 353 353 348 349 346 340 337 333 326 325 320 321 318 314 311 302 295 291 288 287 286 285 283 281 286 288 287 289 287 285 285 281 283 283 279 278 276 273 270 267 267 266 263 260 263 260
161 164 161 156 158 159 150 138 130 121 117 111 106 101 92 83 78 80 74 66 56 41 52 64 80 80 67 61 51 43 40 38 38 32 25 16 10 4 1 353 354 349 348 345 342 342 334 332 328 327 323 320 315 312 310 304 300 295 291 289 289 288 285 281 282 285 286 285 283 279 282 283 282 279 279 276 273 272 269 265 266 266 261 261 260
172 168 165 168 162 144 135 133 126 123 120 116 108 99 90 83 73 61 73 70 57 49 38 43 50 66 68 62 56 45 39 36 31 29 18 14 6 5 357 356 355 345 341 343 343 337 338 326 322 320 314 310 312 308 303 300 297 299 296 292 288 285 285 286 286 285 283 280 281 280 281 281 277 275 276 279 276 272 272 267 266 267 263 262 262
175 169 167 149 145 148 140 131 127 122 116 109 104 96 95 92 79 65 57 56 50 52 49 47 50 65 70 64 56 46 37 31 25 14 6 4 4 356 352 350 342 330 332 330 328 322 318 314 307 309 305 305 305 304 301 300 302 302 302 297 294 290 284 283 277 277 279 278 275 277 279 277 274 272 275 277 279 275 270 270 267 266 266 262 261
170 171 168 163 156 147 144 141 137 130 122 108 92 88 85 83 82 73 65 64 48 54 52 47 53 62 64 61 55 39 33 23 11 6 4 2 352 351 345 329 322 317 320 316 316 317 307 301 300 296 299 299 296 296 294 300 309 309 305 296 290 289 287 284 280 276 274 274 272 272 272 270 269 270 270 274 273 276 277 274 269 264 266 264 261
179 175 172 166 160 157 151 144 137 133 125 116 110 101 98 95 90 84 77 58 46 55 58 61 61 61 58 55 54 40 27 17 15 5 5 359 353 346 334 322 320 313 308 305 300 301 300 294 287 285 286 285 284 283 288 303 310 305 300 297 293 287 285 285 284 282 276 274 275 273 271 271 268 268 267 268 268 268 276 279 275 270 265 267 268
180 177 175 169 162 154 149 142 140 137 131 128 121 115 104 103 90 73 67 50 42 59 68 83 75 60 52 52 50 40 24 14 18 8 360 353 342 341 330 320 313 306 303 300 297 288 283 282 289 288 283 281 276 276 271 275 282 291 298 293 290 285 284 283 284 285 281 273 271 273 271 268 268 268 268 266 266 265 260 258 268 274 270 266 267
181 176 172 167 154 146 140 142 140 132 131 122 118 114 105 90 80 74 70 57 47 97 106 70 64 53 47 42 43 27 10 15 7 357 351 338 335 328 316 313 311 304 297 297 288 286 288 292 291 288 285 279 274 274 277 279 286 289 291 293 291 290 283 278 277 279 283 285 277 271 273 274 271 267 266 264 263 263 264 263 261 259 259 259 267
181 173 165 153 151 149 150 146 138 132 128 126 115 102 91 85 83 77 74 47 75 79 88 78 56 47 41 33 29 12 6 0 359 347 331 324 307 302 297 303 301 298 304 294 290 295 297 293 287 284 284 287 285 277 279 284 289 292 289 288 290 287 282 280 277 276 279 283 284 283 277 274 272 271 272 273 272 268 266 265 263 262 260 257 253
175 166 159 158 156 155 149 139 135 136 126 105 99 99 96 94 90 94 105 178 138 142 118 88 67 54 43 33 22 8 359 350 342 332 315 315 313 313 315 322 318 312 304 305 307 305 300 299 298 300 298 291 287 287 289 290 292 291 287 288 285 281 281 278 277 276 278 281 283 285 288 281 276 272 272 271 271 274 269 265 262 264 263 261 260
157 151 156 157 146 140 137 134 128 119 102 98 93 91 98 94 101 137 182 186 172 149 92 64 57 46 32 25 12 357 354 347 338 327 323 323 324 322 326 315 309 314 314 312 308 304 301 305 306 300 295 295 289 294 293 294 294 293 288 289 284 283 278 275 274 273 274 277 276 282 287 289 287 280 276 277 277 275 278 277 274 268 265 261 258
153 157 161 153 143 135 132 127 126 120 113 114 110 109 114 125 149 170 195 189 158 109 65 48 42 39 21 9 5 354 350 340 335 334 325 313 314 313 321 313 309 310 309 311 309 312 305 301 301 299 295 294 288 290 295 295 294 289 291 292 286 283 280 277 275 271 270 270 274 275 275 279 285 285 278 275 280 283 285 283 279 277 271 269 266
167 159 152 145 145 145 141 133 119 117 119 121 118 120 135 141 167 187 174 152 124 101 77 42 39 28 12 356 353 338 335 329 323 317 308 310 310 312 319 314 307 303 298 291 294 290 297 300 298 300 299 297 298 297 294 294 294 289 294 292 284 282 281 280 278 275 272 271 271 271 274 276 278 279 277 275 275 280 285 286 284 280 277 272 266
124 132 133 132 131 130 123 118 121 123 123 114 111 132 161 170 177 177 168 135 115 94 58 39 31 20 354 344 340 330 321 316 318 319 329 327 326 322 308 308 308 298 291 298 301 300 297 298 302 302 299 297 298 297 293 290 290 283 283 281 281 279 278 278 277 277 274 273 270 267 267 270 274 275 275 274 276 280 282 283 283 282 280 278 275
120 115 116 119 115 110 113 122 120 115 107 106 130 173 181 175 166 162 149 122 99 75 44 24 19 5 356 352 350 345 332 333 341 335 321 314 310 298 301 316 310 314 312 306 299 301 305 299 300 306 303 300 297 298 296 290 288 288 271 277 279 280 280 281 281 277 277 274 273 269 262 265 271 275 277 276 274 272 275 277 281 283 284 285 282
121 130 127 123 122 122 121 119 119 115 117 130 165 189 178 161 151 137 123 110 83 59 27 14 3 1 4 9 360 358 354 348 333 328 330 323 321 314 309 313 313 307 301 300 307 309 310 307 304 301 301 299 297 300 302 304 299 294 288 271 276 275 281 283 288 288 287 284 279 277 273 267 265 271 277 280 279 274 272 275 279 282 281 283 285
113 109 115 117 117 118 122 123 124 121 125 162 187 171 157 141 126 112 106 89 60 30 4 1 360 5 15 10 8 8 5 355 340 333 331 320 312 312 323 324 317 308 306 312 315 311 308 304 305 307 304 300 298 297 298 300 299 294 290 280 269 279 277 284 288 289 291 289 285 284 277 275 275 273 277 281 283 279 274 274 278 281 283 280 290
123 119 116 118 123 123 123 122 117 119 136 173 183 160 135 115 112 104 87 59 27 17 11 12 6 10 14 13 9 5 351 343 337 324 314 314 315 319 318 319 314 308 310 308 307 306 302 300 300 301 298 293 288 288 291 293 295 292 288 285 271 266 274 280 287 288 288 289 290 286 288 282 283 285 287 288 287 284 280 276 273 273 269 277 285
105 120 126 121 118 114 112 108 108 112 117 114 142 128 115 115 104 86 63 23 20 19 16 12 14 14 11 4 359 352 347 332 325 319 318 309 308 307 307 311 305 304 306 304 303 304 299 297 299 297 295 291 289 286 289 291 291 289 285 278 269 263 265 277 281 282 285 283 283 287 289 290 292 292 291 287 284 284 283 282 273 271 277 280 281
133 128 125 126 126 128 127 124 119 110 80 61 97 111 111 107 91 65 36 26 23 20 14 14 12 9 6 356 352 347 333 326 319 317 318 313 312 315 314 308 297 300 303 301 301 300 300 298 299 298 297 297 298 297 291 292 291 289 288 283 275 272 275 265 271 278 280 285 287 288 288 291 295 298 299 296 293 290 288 278 278 280 281 282 283
116 122 132 128 123 124 123 118 109 94 76 55 79 104 105 96 73 45 32 29 26 19 15 14 12 5 357 351 340 330 324 319 319 321 317 312 314 316 311 304 304 301 294 300 296 302 300 298 302 303 302 300 299 296 292 291 293 291 287 288 285 283 278 266 266 272 278 281 286 286 289 294 296 295 294 294 295 292 286 283 283 283 283 282 279
121 114 117 122 129 130 124 114 102 92 78 64 58 97 99 84 63 47 35 31 23 18 15 13 6 357 345 334 326 322 316 311 324 321 314 313 313 318 311 305 305 297 294 292 294 299 300 299 301 298 300 302 302 299 297 296 295 295 289 289 286 284 283 279 277 273 274 276 276 281 284 285 286 286 290 294 295 290 285 284 283 281 279 274 271
105 110 111 117 117 119 122 117 101 84 74 66 57 70 81 73 63 50 38 36 23 14 13 6 354 339 328 320 318 311 308 320 312 308 305 302 304 306 300 299 295 289 287 290 294 300 297 298 293 294 295 299 301 300 298 297 302 298 294 288 286 288 288 289 286 284 279 278 278 278 280 284 288 290 292 292 291 288 286 282 279 276 272 268 262
132 127 126 126 128 126 126 120 109 90 77 70 70 70 72 70 58 53 46 33 20 19 14 358 343 325 318 311 312 315 321 317 312 308 300 290 286 289 292 291 291 294 296 293 293 292 292 291 291 294 296 298 298 297 297 298 303 302 303 302 304 304 300 296 290 284 283 283 284 285 286 287 286 286 284 279 277 280 280 277 272 267 262 258 247
112 124 117 106 112 121 122 118 107 96 83 84 84 81 76 71 66 53 35 28 28 25 5 339 327 318 315 313 312 319 319 315 308 299 294 295 287 284 282 282 289 296 298 295 291 287 285 290 296 296 296 297 295 293 291 297 300 301 304 303 300 295 293 292 290 288 285 286 285 285 284 281 280 279 278 276 278 280 277 278 274 270 266 249 179
126 121 118 120 122 113 114 112 110 105 109 107 105 101 81 64 48 39 29 37 25 9 347 325 322 319 312 318 321 317 314 309 306 301 290 284 295 293 286 282 270 262 257 268 281 281 281 285 285 287 291 292 292 291 290 296 296 297 297 298 297 295 294 290 287 290 293 290 287 286 282 284 281 278 276 279 284 283 280 275 277 272 234 188 145
114 107 104 100 103 116 124 123 118 119 122 120 113 99 75 58 53 40 33 33 14 352 333 333 321 315 313 323 319 312 304 303 304 306 304 295 268 264 269 276 288 277 262 266 273 274 280 289 288 280 275 280 282 283 292 296 297 299 298 296 294 292 291 291 294 296 296 292 288 286 283 281 281 274 270 278 284 284 285 284 271 253 233 170 122
134 125 121 116 118 118 119 121 123 124 124 116 100 77 65 50 47 33 35 27 3 348 338 323 319 317 321 315 308 306 309 305 298 297 299 303 309 298 272 269 272 281 285 281 277 278 281 280 278 283 282 279 281 283 286 290 293 296 297 298 298 297 295 294 295 297 291 283 283 278 281 280 275 271 270 277 281 283 280 274 255 203 203 133 121